{"data":{"norad_id":46232,"epoch":"2026-09-20T04:45:55.473408Z","epoch_age_seconds":96008,"freshness":"FRESH","line1":"1 46232U 20058A   26263.19855872  .00004869  00000+0  15337-3 0  9994","line2":"2 46232  97.2011 301.0162 0009834 111.3799 248.8494 15.33327668338161","mean_motion":15.33327668,"eccentricity":0.0009834,"inclination_deg":97.2011,"raan_deg":301.0162,"arg_perigee_deg":111.3799,"mean_anomaly_deg":248.8494,"bstar":0.00015337,"rev_number":33816,"period_min":93.913390467823,"perigee_km":459.16187581304,"apogee_km":472.62271262891,"semimajor_km":6844.029294221,"source":"CELESTRAK","updated_at":"2026-09-20T09:00:14.752697Z"}}